Change the Weather History Date:

Saturday, October 15, 2011

  Actual Average (EGGP) Record (EGGP)
Temperature  
Mean Temperature 52 °F -  
Max Temperature 61 °F 52 °F 64 °F (2005)
Min Temperature 41 °F 42 °F 42 °F (2003)
Degree Days  
Heating Degree Days 14    
Growing Degree Days 2 (Base 50)    
Moisture  
Dew Point 45 °F    
Average Humidity 73    
Maximum Humidity 92    
Minimum Humidity 51    
Precipitation  
Precipitation 0.00 in - - ()
Sea Level Pressure  
Sea Level Pressure 30.23 in    
Wind  
Wind Speed 9 mph ()    
Max Wind Speed 14 mph    
Max Gust Speed -    
Visibility 6.1 miles    
Events      
Averages and records for this station are not official NWS values.
T = Trace of Precipitation, MM = Missing Value Source: Averaged Metar Reports

Daily Weather History Graph

Daily Weather History Graph

Search for Another Location

Airport or City:

Trip Planner

Search our weather history database for the weather conditions in past years. The results will help you decide how hot, cold, wet, or windy it might be!

Date:

Astronomy

Oct. 15, 2011 Rise Set
Actual Time 7:37 AM BST 6:17 PM BST
Civil Twilight 7:02 AM BST 6:51 PM BST
Nautical Twilight 6:22 AM BST 7:32 PM BST
Astronomical Twilight 5:42 AM BST 8:12 PM BST
Moon 7:27 PM BST (10/15) 11:23 AM BST (10/15)
Length of Visible Light 11h 49m
Length of Day
10h 39m
Waning Gibbous, 90% of the Moon is Illuminated
Oct 15
Waning Gibbous
Oct 20
Last Quarter
Oct 26
New
Nov 2
First Quarter
Nov 10
Full

Hourly Weather History & Observations

Time (BST) Temp. Windchill Dew Point Humidity Pressure Visibility Wind Dir Wind Speed Gust Speed Precip Events Conditions
12:50 AM 44 °F - 41 °F 86% 30.33 in 5 mi SSE 5.8 mph - -  
3:50 AM 44 °F - 41 °F 84% 30.27 in 6 mi SSE 12.7 mph - -  
6:50 AM 41 °F - 40 °F 92% 30.26 in 4 mi South 5.8 mph - -  
9:20 AM 44.6 °F 40.2 °F 41.0 °F 87% 30.24 in 5.6 mi SSE 8.1 mph - N/A   Unknown
9:50 AM 46 °F - 42 °F 83% 30.27 in 5 mi South 8.1 mph - -  
9:50 AM 46.4 °F 41.9 °F 42.8 °F 87% 30.24 in 5.6 mi SSE 9.2 mph - N/A   Unknown
10:20 AM 48.2 °F - 42.8 °F 82% 30.24 in 5.6 mi SSE 10.4 mph - N/A   Unknown
10:50 AM 50.0 °F - 44.6 °F 82% 30.24 in 5.6 mi SSE 10.4 mph - N/A   Unknown
11:20 AM 51.8 °F - 44.6 °F 76% 30.24 in 5.6 mi SSE 11.5 mph - N/A   Unknown
11:50 AM 57.2 °F - 48.2 °F 72% 30.24 in 5.6 mi SSE 11.5 mph - N/A   Unknown
12:20 PM 55.4 °F - 46.4 °F 72% 30.21 in 5.6 mi SSE 13.8 mph - N/A   Unknown
12:50 PM 58 °F - 47 °F 58% 30.23 in 9 mi South 13.8 mph - -  
12:50 PM 57.2 °F - 46.4 °F 67% 30.21 in 5.6 mi South 12.7 mph - N/A   Unknown
1:20 PM 59.0 °F - 48.2 °F 67% 30.21 in 5.6 mi South 11.5 mph - N/A   Unknown
1:50 PM 60.8 °F - 48.2 °F 63% 30.21 in 6.2 mi South 13.8 mph - N/A   Partly Cloudy
2:50 PM 60.8 °F - 46.4 °F 59% 30.18 in 5.6 mi South 11.5 mph - N/A   Unknown
3:20 PM 60.8 °F - 46.4 °F 59% 30.18 in 5.6 mi South 10.4 mph - N/A   Unknown
3:50 PM 61 °F - 47 °F 51% 30.19 in 12 mi South 9.2 mph - -  
3:50 PM 62.6 °F - 48.2 °F 59% 30.18 in 5.6 mi South 9.2 mph - N/A   Unknown
6:50 PM 54 °F - 47 °F 69% 30.18 in 8 mi South 8.1 mph - -